Tracking 19564 objects as of 18-Mar-2019
HD Live streaming from Space Station
objects crossing your sky now

INTELSAT 801

Track INTELSAT 801 now!
INTELSAT 801 is classified as:


NORAD ID: 24742
Int'l Code: 1997-009A
Perigee: 36,166.1 km
Apogee: 36,294.7 km
Inclination: 7.9 °
Period: 1,458.5 minutes
Semi major axis: 42601 km
RCS: 1.061 m2 (large)
Launch date: March 1, 1997
Source: International Telecommunications Satellite Organization (ITSO)
Launch site: FRENCH GUIANA (FRGUI)

64 C-band, 16 Ku-band; broadcasting, business services, direct-to-home TV broadcasting, telecommunications, VSAT networks; Atlantic Ocean region.
aabbcc
Your satellite tracking list
Your tracking list is empty




NASA's NSSDC Master Catalog

Two Line Element Set (TLE):
1 24742U 97009A   19077.57015090  .00000020  00000-0  00000+0 0  9996
2 24742   7.9293  49.6537 0015092 302.6432 271.9261  0.98734050 80486
Source of the keplerian elements: AFSPC